Location: Marsån
(66.4167°N, 22.2833°E)
Time: 08:16:30
(UTC+00:00)

Meteor 2-3 Rocket - Pass Details

Date: 24 February 2024
Orbit: 841 x 885 km, 81.2° (Epoch: 21 April)

Event Time Altitude Azimuth Distance (km) Brightness Sun altitude
Rises 18:07:17 0° 207° (SSW) 3,480 7.0 -16.9°
Reaches altitude 10° 18:09:45 10° 209° (SSW) 2,540 6.3 -17.1°
Maximum altitude 18:15:32 76° 295° (WNW) 910 4.0 -17.7°
Drops below altitude 10° 18:21:18 10° 22° (NNE) 2,527 6.1 -18.2°
Sets 18:23:45 0° 24° (NNE) 3,461 6.8 -18.5°
